Time,TemperatureF,DewpointF,PressureIn,WindDirection,WindDirectionDegrees,WindSpeedMPH,WindSpeedGustMPH,Humidity,HourlyPrecipIn,Conditions,Clouds,dailyrainin,SoftwareType,DateUTC
2013-01-22 00:03:00,41.9,1.4,-100.00,WSW,238,0.0,4.0,18,0.00,,,0.00,meteohub,2013-01-22 08:03:00,
2013-01-22 00:08:00,41.5,0.0,-100.00,WSW,238,0.0,4.0,17,0.00,,,0.00,meteohub,2013-01-22 08:08:00,
2013-01-22 00:13:00,41.4,-0.2,-100.00,WSW,238,0.0,4.0,17,0.00,,,0.00,meteohub,2013-01-22 08:13:00,
2013-01-22 00:18:00,41.2,-0.4,-100.00,WSW,238,0.0,1.0,17,0.00,,,0.00,meteohub,2013-01-22 08:18:00,
2013-01-22 00:23:00,41.2,1.9,-100.00,WSW,238,3.0,3.0,19,0.00,,,0.00,meteohub,2013-01-22 08:23:00,
2013-01-22 00:28:00,41.0,1.9,-100.00,WSW,238,0.0,4.0,19,0.00,,,0.00,meteohub,2013-01-22 08:28:00,
2013-01-22 00:33:00,40.8,1.8,-100.00,WSW,238,0.0,4.0,19,0.00,,,0.00,meteohub,2013-01-22 08:33:00,
2013-01-22 00:38:00,40.8,1.8,-100.00,WSW,238,1.0,4.0,19,0.00,,,0.00,meteohub,2013-01-22 08:38:00,
2013-01-22 00:47:00,40.6,2.7,-100.00,WSW,238,3.0,3.0,20,0.00,,,0.00,meteohub,2013-01-22 08:47:00,
2013-01-22 00:52:00,40.8,1.8,-100.00,WSW,237,2.0,6.0,19,0.00,,,0.00,meteohub,2013-01-22 08:52:00,
2013-01-22 00:57:00,41.0,1.9,-100.00,WSW,237,0.0,6.0,19,0.00,,,0.00,meteohub,2013-01-22 08:57:00,
2013-01-22 01:02:00,41.2,1.9,-100.00,WSW,237,0.0,6.0,19,0.00,,,0.00,meteohub,2013-01-22 09:02:00,
2013-01-22 01:07:00,41.2,3.2,-100.00,WSW,237,0.0,4.0,20,0.00,,,0.00,meteohub,2013-01-22 09:07:00,
2013-01-22 01:12:00,41.2,3.2,-100.00,WSW,237,0.0,1.0,20,0.00,,,0.00,meteohub,2013-01-22 09:12:00,
2013-01-22 01:17:00,41.2,1.9,-100.00,WSW,237,0.0,0.0,19,0.00,,,0.00,meteohub,2013-01-22 09:17:00,
2013-01-22 01:22:00,41.4,2.1,-100.00,WSW,237,0.0,0.0,19,0.00,,,0.00,meteohub,2013-01-22 09:22:00,
2013-01-22 01:27:00,41.4,2.1,-100.00,WSW,237,0.0,0.0,19,0.00,,,0.00,meteohub,2013-01-22 09:27:00,
2013-01-22 01:32:00,41.2,1.9,-100.00,WSW,237,0.0,0.0,19,0.00,,,0.00,meteohub,2013-01-22 09:32:00,
2013-01-22 01:37:00,41.2,1.9,-100.00,WSW,237,0.0,0.0,19,0.00,,,0.00,meteohub,2013-01-22 09:37:00,
2013-01-22 01:42:00,41.0,3.0,-100.00,WSW,237,0.0,0.0,20,0.00,,,0.00,meteohub,2013-01-22 09:42:00,
2013-01-22 01:47:00,40.8,2.8,-100.00,WSW,237,2.0,0.0,20,0.00,,,0.00,meteohub,2013-01-22 09:47:00,
2013-01-22 01:52:00,40.6,2.7,-100.00,WSW,237,2.0,5.0,20,0.00,,,0.00,meteohub,2013-01-22 09:52:00,
2013-01-22 01:57:00,40.6,2.7,-100.00,WSW,237,1.0,5.0,20,0.00,,,0.00,meteohub,2013-01-22 09:57:00,
2013-01-22 02:02:00,40.6,2.7,-100.00,WSW,237,3.0,5.0,20,0.00,,,0.00,meteohub,2013-01-22 10:02:00,
2013-01-22 02:07:00,40.5,2.5,-100.00,WSW,237,2.0,4.0,20,0.00,,,0.00,meteohub,2013-01-22 10:07:00,
2013-01-22 02:12:00,40.3,2.3,-100.00,WSW,237,3.0,4.0,20,0.00,,,0.00,meteohub,2013-01-22 10:12:00,
2013-01-22 02:17:00,40.3,2.3,-100.00,WSW,238,2.0,4.0,20,0.00,,,0.00,meteohub,2013-01-22 10:17:00,
2013-01-22 02:22:00,40.1,2.3,-100.00,WSW,242,4.0,4.0,20,0.00,,,0.00,meteohub,2013-01-22 10:22:00,
2013-01-22 02:27:00,40.1,2.3,-100.00,WSW,242,0.0,5.0,20,0.00,,,0.00,meteohub,2013-01-22 10:27:00,
2013-01-22 02:32:00,39.9,2.1,-100.00,WSW,242,2.0,5.0,20,0.00,,,0.00,meteohub,2013-01-22 10:32:00,
2013-01-22 02:37:00,39.7,3.0,-100.00,WSW,242,2.0,5.0,21,0.00,,,0.00,meteohub,2013-01-22 10:37:00,
2013-01-22 02:42:00,39.7,1.9,-100.00,WSW,242,3.0,3.0,20,0.00,,,0.00,meteohub,2013-01-22 10:42:00,
2013-01-22 02:47:00,39.9,2.1,-100.00,WSW,242,3.0,5.0,20,0.00,,,0.00,meteohub,2013-01-22 10:47:00,
2013-01-22 02:52:00,40.5,3.6,-100.00,WSW,242,2.0,5.0,21,0.00,,,0.00,meteohub,2013-01-22 10:52:00,
2013-01-22 02:57:00,40.6,2.7,-100.00,WSW,242,3.0,4.0,20,0.00,,,0.00,meteohub,2013-01-22 10:57:00,
2013-01-22 03:02:00,40.8,2.8,-100.00,WSW,242,2.0,5.0,20,0.00,,,0.00,meteohub,2013-01-22 11:02:00,
2013-01-22 03:07:00,40.8,2.8,-100.00,WSW,242,5.0,5.0,20,0.00,,,0.00,meteohub,2013-01-22 11:07:00,
2013-01-22 03:13:00,40.6,3.7,-100.00,WSW,241,5.0,5.0,21,0.00,,,0.00,meteohub,2013-01-22 11:13:00,
2013-01-22 03:18:00,40.6,1.6,-100.00,WSW,241,4.0,6.0,19,0.00,,,0.00,meteohub,2013-01-22 11:18:00,
2013-01-22 03:23:00,40.6,2.7,-100.00,WSW,241,3.0,6.0,20,0.00,,,0.00,meteohub,2013-01-22 11:23:00,
2013-01-22 03:28:00,40.3,2.3,-100.00,WSW,240,4.0,6.0,20,0.00,,,0.00,meteohub,2013-01-22 11:28:00,
2013-01-22 03:33:00,39.7,1.9,-100.00,SSW,203,4.0,5.0,20,0.00,,,0.00,meteohub,2013-01-22 11:33:00,
2013-01-22 03:38:00,39.7,1.9,-100.00,SSW,202,6.0,6.0,20,0.00,,,0.00,meteohub,2013-01-22 11:38:00,
2013-01-22 03:43:00,39.7,3.0,-100.00,SSW,202,4.0,6.0,21,0.00,,,0.00,meteohub,2013-01-22 11:43:00,
2013-01-22 03:48:00,39.9,2.1,-100.00,SSW,205,5.0,6.0,20,0.00,,,0.00,meteohub,2013-01-22 11:48:00,
2013-01-22 03:53:00,40.3,2.3,-100.00,SSW,207,6.0,6.0,20,0.00,,,0.00,meteohub,2013-01-22 11:53:00,
2013-01-22 03:58:00,40.5,3.6,-100.00,SW,233,7.0,7.0,21,0.00,,,0.00,meteohub,2013-01-22 11:58:00,
2013-01-22 04:03:00,40.5,3.6,-100.00,WSW,246,7.0,10.0,21,0.00,,,0.00,meteohub,2013-01-22 12:03:00,
2013-01-22 04:08:00,41.4,4.3,-100.00,WSW,257,7.0,10.0,21,0.00,,,0.00,meteohub,2013-01-22 12:08:00,
2013-01-22 04:13:00,41.9,4.8,-100.00,WSW,256,5.0,10.0,21,0.00,,,0.00,meteohub,2013-01-22 12:13:00,
2013-01-22 04:18:00,43.0,4.6,-100.00,WSW,253,6.0,9.0,20,0.00,,,0.00,meteohub,2013-01-22 12:18:00,
2013-01-22 04:23:00,44.1,5.5,-100.00,WSW,253,6.0,9.0,20,0.00,,,0.00,meteohub,2013-01-22 12:23:00,
2013-01-22 04:28:00,44.2,4.6,-100.00,WSW,252,4.0,9.0,19,0.00,,,0.00,meteohub,2013-01-22 12:28:00,
2013-01-22 04:33:00,44.4,4.6,-100.00,WSW,252,1.0,9.0,19,0.00,,,0.00,meteohub,2013-01-22 12:33:00,
2013-01-22 04:38:00,44.8,5.0,-100.00,WSW,252,2.0,9.0,19,0.00,,,0.00,meteohub,2013-01-22 12:38:00,
2013-01-22 04:43:00,44.4,4.6,-100.00,WSW,252,0.0,8.0,19,0.00,,,0.00,meteohub,2013-01-22 12:43:00,
2013-01-22 04:48:00,44.1,4.5,-100.00,WSW,252,0.0,3.0,19,0.00,,,0.00,meteohub,2013-01-22 12:48:00,
2013-01-22 04:53:00,43.3,3.7,-100.00,WSW,252,1.0,3.0,19,0.00,,,0.00,meteohub,2013-01-22 12:53:00,
2013-01-22 04:58:00,42.4,4.1,-100.00,WSW,251,3.0,3.0,20,0.00,,,0.00,meteohub,2013-01-22 12:58:00,
2013-01-22 05:04:00,41.5,3.4,-100.00,WSW,251,0.0,4.0,20,0.00,,,0.00,meteohub,2013-01-22 13:04:00,
2013-01-22 05:09:00,41.0,3.0,-100.00,WSW,251,3.0,4.0,20,0.00,,,0.00,meteohub,2013-01-22 13:09:00,
2013-01-22 05:14:00,40.5,2.5,-100.00,SSW,208,4.0,4.0,20,0.00,,,0.00,meteohub,2013-01-22 13:14:00,
2013-01-22 05:19:00,39.7,1.9,-100.00,South,188,3.0,5.0,20,0.00,,,0.00,meteohub,2013-01-22 13:19:00,
2013-01-22 05:24:00,39.6,1.8,-100.00,South,184,4.0,5.0,20,0.00,,,0.00,meteohub,2013-01-22 13:24:00,
2013-01-22 05:29:00,39.4,1.6,-100.00,South,183,2.0,5.0,20,0.00,,,0.00,meteohub,2013-01-22 13:29:00,
2013-01-22 05:34:00,38.8,3.2,-100.00,South,184,3.0,5.0,22,0.00,,,0.00,meteohub,2013-01-22 13:34:00,
2013-01-22 05:39:00,37.6,3.2,-100.00,SSW,211,5.0,5.0,23,0.00,,,0.00,meteohub,2013-01-22 13:39:00,
2013-01-22 05:44:00,37.9,3.4,-100.00,SW,216,0.0,6.0,23,0.00,,,0.00,meteohub,2013-01-22 13:44:00,
2013-01-22 05:49:00,38.3,2.8,-100.00,SW,216,0.0,6.0,22,0.00,,,0.00,meteohub,2013-01-22 13:49:00,
2013-01-22 05:54:00,38.8,3.2,-100.00,SW,216,0.0,6.0,22,0.00,,,0.00,meteohub,2013-01-22 13:54:00,
2013-01-22 05:59:00,39.4,3.7,-100.00,SW,216,0.0,5.0,22,0.00,,,0.00,meteohub,2013-01-22 13:59:00,
2013-01-22 06:04:00,39.6,2.8,-100.00,SW,216,0.0,1.0,21,0.00,,,0.00,meteohub,2013-01-22 14:04:00,
2013-01-22 06:09:00,39.4,3.7,-100.00,SW,216,0.0,1.0,22,0.00,,,0.00,meteohub,2013-01-22 14:09:00,
2013-01-22 06:14:00,39.4,3.7,-100.00,SW,216,0.0,1.0,22,0.00,,,0.00,meteohub,2013-01-22 14:14:00,
2013-01-22 06:19:00,39.4,3.7,-100.00,SW,216,0.0,1.0,22,0.00,,,0.00,meteohub,2013-01-22 14:19:00,
2013-01-22 06:24:00,39.2,4.5,-100.00,SW,216,0.0,1.0,23,0.00,,,0.00,meteohub,2013-01-22 14:24:00,
2013-01-22 06:29:00,38.8,5.2,-100.00,SW,216,1.0,1.0,24,0.00,,,0.00,meteohub,2013-01-22 14:29:00,
2013-01-22 06:34:00,38.1,5.4,-100.00,SW,216,0.0,2.0,25,0.00,,,0.00,meteohub,2013-01-22 14:34:00,
2013-01-22 06:39:00,37.8,3.2,-100.00,SW,216,0.0,2.0,23,0.00,,,0.00,meteohub,2013-01-22 14:39:00,
2013-01-22 06:44:00,37.2,4.6,-100.00,SW,216,1.0,2.0,25,0.00,,,0.00,meteohub,2013-01-22 14:44:00,
2013-01-22 06:49:00,36.9,3.4,-100.00,SW,216,1.0,2.0,24,0.00,,,0.00,meteohub,2013-01-22 14:49:00,
2013-01-22 06:54:00,36.3,1.0,-100.00,SW,216,0.0,3.0,22,0.00,,,0.00,meteohub,2013-01-22 14:54:00,
2013-01-22 06:59:00,36.0,1.8,-100.00,SW,216,0.0,3.0,23,0.00,,,0.00,meteohub,2013-01-22 14:59:00,
2013-01-22 07:04:00,35.8,2.5,-100.00,SW,216,0.0,2.0,24,0.00,,,0.00,meteohub,2013-01-22 15:04:00,
2013-01-22 07:09:00,35.4,2.1,-100.00,SW,216,0.0,1.0,24,0.00,,,0.00,meteohub,2013-01-22 15:09:00,
2013-01-22 07:14:00,35.4,2.1,-100.00,SW,216,0.0,1.0,24,0.00,,,0.00,meteohub,2013-01-22 15:14:00,
2013-01-22 07:19:00,35.2,2.8,-100.00,SW,216,1.0,1.0,25,0.00,,,0.00,meteohub,2013-01-22 15:19:00,
2013-01-22 07:24:00,34.7,3.4,-100.00,SW,216,0.0,2.0,26,0.00,,,0.00,meteohub,2013-01-22 15:24:00,
2013-01-22 07:29:00,34.9,3.4,-100.00,SW,216,0.0,4.0,26,0.00,,,0.00,meteohub,2013-01-22 15:29:00,
2013-01-22 07:35:00,35.1,4.5,-100.00,SW,216,0.0,4.0,27,0.00,,,0.00,meteohub,2013-01-22 15:35:00,
2013-01-22 07:40:00,35.4,4.8,-100.00,SW,216,0.0,4.0,27,0.00,,,0.00,meteohub,2013-01-22 15:40:00,
2013-01-22 07:45:00,36.0,4.5,-100.00,SW,216,0.0,3.0,26,0.00,,,0.00,meteohub,2013-01-22 15:45:00,
2013-01-22 07:50:00,36.1,4.5,-100.00,SW,216,0.0,1.0,26,0.00,,,0.00,meteohub,2013-01-22 15:50:00,
2013-01-22 07:55:00,36.5,4.8,-100.00,SW,216,0.0,1.0,26,0.00,,,0.00,meteohub,2013-01-22 15:55:00,
2013-01-22 08:00:00,37.0,4.5,-100.00,SW,216,0.0,1.0,25,0.00,,,0.00,meteohub,2013-01-22 16:00:00,
2013-01-22 08:05:00,37.6,4.1,-100.00,SW,216,0.0,0.0,24,0.00,,,0.00,meteohub,2013-01-22 16:05:00,
2013-01-22 08:10:00,37.9,4.3,-100.00,SW,216,1.0,2.0,24,0.00,,,0.00,meteohub,2013-01-22 16:10:00,
2013-01-22 08:15:00,38.7,5.0,-100.00,SW,216,0.0,2.0,24,0.00,,,0.00,meteohub,2013-01-22 16:15:00,
2013-01-22 08:20:00,39.4,4.6,-100.00,SW,216,0.0,2.0,23,0.00,,,0.00,meteohub,2013-01-22 16:20:00,
2013-01-22 08:25:00,39.7,5.0,-100.00,SW,216,0.0,2.0,23,0.00,,,0.00,meteohub,2013-01-22 16:25:00,
2013-01-22 08:30:00,40.6,4.8,-100.00,SW,216,1.0,1.0,22,0.00,,,0.00,meteohub,2013-01-22 16:30:00,
2013-01-22 08:35:00,41.2,4.1,-100.00,SW,214,0.0,1.0,21,0.00,,,0.00,meteohub,2013-01-22 16:35:00,
2013-01-22 08:40:00,41.7,3.6,-100.00,SW,214,0.0,2.0,20,0.00,,,0.00,meteohub,2013-01-22 16:40:00,
2013-01-22 08:45:00,42.3,4.1,-100.00,SW,214,0.0,2.0,20,0.00,,,0.00,meteohub,2013-01-22 16:45:00,
2013-01-22 08:50:00,42.8,4.5,-100.00,SW,214,0.0,2.0,20,0.00,,,0.00,meteohub,2013-01-22 16:50:00,
2013-01-22 08:55:00,43.3,5.0,-100.00,SW,214,0.0,1.0,20,0.00,,,0.00,meteohub,2013-01-22 16:55:00,
2013-01-22 09:00:00,43.9,5.4,-100.00,SW,214,0.0,1.0,20,0.00,,,0.00,meteohub,2013-01-22 17:00:00,
2013-01-22 09:05:00,45.0,11.3,-100.00,SW,214,0.0,0.0,25,0.00,,,0.00,meteohub,2013-01-22 17:05:00,
2013-01-22 09:10:00,46.0,6.1,-100.00,SW,214,0.0,0.0,19,0.00,,,0.00,meteohub,2013-01-22 17:10:00,
2013-01-22 09:15:00,46.6,6.4,-100.00,SW,214,0.0,0.0,19,0.00,,,0.00,meteohub,2013-01-22 17:15:00,
2013-01-22 09:20:00,47.1,7.0,-100.00,SW,214,0.0,0.0,19,0.00,,,0.00,meteohub,2013-01-22 17:20:00,
2013-01-22 09:25:00,47.8,6.4,-100.00,SW,214,0.0,0.0,18,0.00,,,0.00,meteohub,2013-01-22 17:25:00,
2013-01-22 09:30:00,48.4,6.8,-100.00,SW,214,1.0,2.0,18,0.00,,,0.00,meteohub,2013-01-22 17:30:00,
2013-01-22 09:35:00,48.9,7.2,-100.00,SW,214,0.0,3.0,18,0.00,,,0.00,meteohub,2013-01-22 17:35:00,
2013-01-22 09:40:00,49.3,6.3,-100.00,SW,214,1.0,3.0,17,0.00,,,0.00,meteohub,2013-01-22 17:40:00,
2013-01-22 09:45:00,49.8,6.8,-100.00,SW,214,1.0,3.0,17,0.00,,,0.00,meteohub,2013-01-22 17:45:00,
2013-01-22 09:50:00,50.4,5.9,-100.00,SW,214,1.0,3.0,16,0.00,,,0.00,meteohub,2013-01-22 17:50:00,
2013-01-22 09:55:00,50.7,6.1,-100.00,SW,214,3.0,4.0,16,0.00,,,0.00,meteohub,2013-01-22 17:55:00,
2013-01-22 10:00:00,51.3,5.2,-100.00,SW,214,0.0,4.0,15,0.00,,,0.00,meteohub,2013-01-22 18:00:00,
2013-01-22 10:05:00,52.0,5.7,-100.00,SW,214,0.0,3.0,15,0.00,,,0.00,meteohub,2013-01-22 18:05:00,
2013-01-22 10:10:00,52.3,6.1,-100.00,SW,214,0.0,3.0,15,0.00,,,0.00,meteohub,2013-01-22 18:10:00,
2013-01-22 10:15:00,52.9,5.0,-100.00,SW,214,1.0,2.0,14,0.00,,,0.00,meteohub,2013-01-22 18:15:00,
2013-01-22 10:20:00,53.6,5.5,-100.00,SW,214,1.0,2.0,14,0.00,,,0.00,meteohub,2013-01-22 18:20:00,
2013-01-22 10:25:00,54.1,5.9,-100.00,SW,214,1.0,3.0,14,0.00,,,0.00,meteohub,2013-01-22 18:25:00,
2013-01-22 10:30:00,54.9,6.6,-100.00,SW,214,2.0,3.0,14,0.00,,,0.00,meteohub,2013-01-22 18:30:00,
2013-01-22 10:35:00,55.6,5.5,-100.00,SW,214,1.0,4.0,13,0.00,,,0.00,meteohub,2013-01-22 18:35:00,
2013-01-22 10:40:00,55.9,5.7,-100.00,SW,214,0.0,4.0,13,0.00,,,0.00,meteohub,2013-01-22 18:40:00,
2013-01-22 10:45:00,55.9,5.7,-100.00,SW,214,0.0,4.0,13,0.00,,,0.00,meteohub,2013-01-22 18:45:00,
2013-01-22 10:50:00,56.5,6.3,-100.00,SW,214,1.0,4.0,13,0.00,,,0.00,meteohub,2013-01-22 18:50:00,
2013-01-22 10:56:00,56.7,6.3,-100.00,SW,214,0.0,4.0,13,0.00,,,0.00,meteohub,2013-01-22 18:56:00,
2013-01-22 11:01:00,56.8,6.4,-100.00,SW,214,0.0,4.0,13,0.00,,,0.00,meteohub,2013-01-22 19:01:00,
2013-01-22 11:06:00,57.4,5.2,-100.00,SW,214,1.0,3.0,12,0.00,,,0.00,meteohub,2013-01-22 19:06:00,
2013-01-22 11:11:00,57.9,5.5,-100.00,SW,214,0.0,3.0,12,0.00,,,0.00,meteohub,2013-01-22 19:11:00,
2013-01-22 11:16:00,58.5,6.1,-100.00,SW,214,1.0,2.0,12,0.00,,,0.00,meteohub,2013-01-22 19:16:00,
2013-01-22 11:21:00,58.5,6.1,-100.00,SW,214,0.0,2.0,12,0.00,,,0.00,meteohub,2013-01-22 19:21:00,
2013-01-22 11:26:00,58.6,6.1,-100.00,SW,214,0.0,3.0,12,0.00,,,0.00,meteohub,2013-01-22 19:26:00,
2013-01-22 11:31:00,59.0,4.5,-100.00,SW,214,0.0,3.0,11,0.00,,,0.00,meteohub,2013-01-22 19:31:00,
2013-01-22 11:36:00,59.4,4.8,-100.00,SW,214,0.0,3.0,11,0.00,,,0.00,meteohub,2013-01-22 19:36:00,
2013-01-22 11:41:00,59.7,5.0,-100.00,SW,214,0.0,2.0,11,0.00,,,0.00,meteohub,2013-01-22 19:41:00,
2013-01-22 11:46:00,60.1,5.4,-100.00,SW,214,2.0,3.0,11,0.00,,,0.00,meteohub,2013-01-22 19:46:00,
2013-01-22 11:51:00,60.3,5.5,-100.00,SW,214,0.0,3.0,11,0.00,,,0.00,meteohub,2013-01-22 19:51:00,
2013-01-22 11:56:00,60.4,5.7,-100.00,SW,214,0.0,3.0,11,0.00,,,0.00,meteohub,2013-01-22 19:56:00,
2013-01-22 12:01:00,60.6,5.7,-100.00,SW,214,1.0,2.0,11,0.00,,,0.00,meteohub,2013-01-22 20:01:00,
2013-01-22 12:07:00,61.0,6.1,-100.00,SW,214,3.0,3.0,11,0.00,,,0.00,meteohub,2013-01-22 20:07:00,
2013-01-22 12:12:00,61.3,4.3,-100.00,SW,214,1.0,4.0,10,0.00,,,0.00,meteohub,2013-01-22 20:12:00,
2013-01-22 12:17:00,61.9,4.6,-100.00,SW,214,2.0,4.0,10,0.00,,,0.00,meteohub,2013-01-22 20:17:00,
2013-01-22 12:22:00,62.1,4.8,-100.00,SW,214,1.0,4.0,10,0.00,,,0.00,meteohub,2013-01-22 20:22:00,
2013-01-22 12:27:00,62.2,5.0,-100.00,SW,214,1.0,3.0,10,0.00,,,0.00,meteohub,2013-01-22 20:27:00,
2013-01-22 12:32:00,62.4,5.2,-100.00,SW,217,2.0,4.0,10,0.00,,,0.00,meteohub,2013-01-22 20:32:00,
2013-01-22 12:37:00,63.0,5.5,-100.00,West,269,4.0,4.0,10,0.00,,,0.00,meteohub,2013-01-22 20:37:00,
2013-01-22 12:42:00,63.3,5.7,-100.00,NW,315,2.0,5.0,10,0.00,,,0.00,meteohub,2013-01-22 20:42:00,
2013-01-22 12:47:00,63.7,6.1,-100.00,NE,36,5.0,6.0,10,0.00,,,0.00,meteohub,2013-01-22 20:47:00,
2013-01-22 12:52:00,63.9,3.9,-100.00,NE,36,4.0,7.0,9,0.00,,,0.00,meteohub,2013-01-22 20:52:00,
2013-01-22 12:57:00,64.0,4.1,-100.00,NE,36,3.0,7.0,9,0.00,,,0.00,meteohub,2013-01-22 20:57:00,
2013-01-22 13:02:00,64.2,4.1,-100.00,NE,36,2.0,7.0,9,0.00,,,0.00,meteohub,2013-01-22 21:02:00,
2013-01-22 13:08:00,64.6,6.8,-100.00,ESE,113,4.0,10.0,10,0.00,,,0.00,meteohub,2013-01-22 21:08:00,
2013-01-22 13:13:00,64.9,4.6,-100.00,East,84,2.0,10.0,9,0.00,,,0.00,meteohub,2013-01-22 21:13:00,
2013-01-22 13:18:00,65.5,5.2,-100.00,ENE,61,5.0,10.0,9,0.00,,,0.00,meteohub,2013-01-22 21:18:00,
2013-01-22 13:23:00,65.7,5.2,-100.00,ENE,69,9.0,10.0,9,0.00,,,0.00,meteohub,2013-01-22 21:23:00,
2013-01-22 13:28:00,66.0,5.5,-100.00,ENE,76,7.0,10.0,9,0.00,,,0.00,meteohub,2013-01-22 21:28:00,
2013-01-22 13:32:00,66.4,5.9,-100.00,ENE,75,8.0,10.0,9,0.00,,,0.00,meteohub,2013-01-22 21:32:00,
2013-01-22 13:37:00,66.4,5.9,-100.00,ENE,67,4.0,10.0,9,0.00,,,0.00,meteohub,2013-01-22 21:37:00,
2013-01-22 13:42:00,66.4,5.9,-100.00,ENE,70,9.0,10.0,9,0.00,,,0.00,meteohub,2013-01-22 21:42:00,
2013-01-22 13:47:00,66.2,5.7,-100.00,East,80,6.0,11.0,9,0.00,,,0.00,meteohub,2013-01-22 21:47:00,
2013-01-22 13:52:00,66.4,5.9,-100.00,ENE,69,8.0,11.0,9,0.00,,,0.00,meteohub,2013-01-22 21:52:00,
2013-01-22 13:57:00,66.6,5.9,-100.00,ENE,73,3.0,11.0,9,0.00,,,0.00,meteohub,2013-01-22 21:57:00,
2013-01-22 14:02:00,66.6,5.9,-100.00,ENE,70,8.0,10.0,9,0.00,,,0.00,meteohub,2013-01-22 22:02:00,
2013-01-22 14:07:00,66.6,5.9,-100.00,East,82,6.0,10.0,9,0.00,,,0.00,meteohub,2013-01-22 22:07:00,
2013-01-22 14:12:00,66.6,5.9,-100.00,East,82,7.0,10.0,9,0.00,,,0.00,meteohub,2013-01-22 22:12:00,
2013-01-22 14:17:00,66.7,6.1,-100.00,ENE,63,7.0,10.0,9,0.00,,,0.00,meteohub,2013-01-22 22:17:00,
2013-01-22 14:23:00,66.9,6.3,-100.00,NE,46,4.0,10.0,9,0.00,,,0.00,meteohub,2013-01-22 22:23:00,
2013-01-22 14:28:00,66.9,6.3,-100.00,ENE,65,5.0,10.0,9,0.00,,,0.00,meteohub,2013-01-22 22:28:00,
2013-01-22 14:33:00,66.9,6.3,-100.00,ENE,61,7.0,11.0,9,0.00,,,0.00,meteohub,2013-01-22 22:33:00,
2013-01-22 14:38:00,66.9,6.3,-100.00,ENE,68,4.0,11.0,9,0.00,,,0.00,meteohub,2013-01-22 22:38:00,
2013-01-22 14:43:00,67.1,6.4,-100.00,ENE,73,4.0,10.0,9,0.00,,,0.00,meteohub,2013-01-22 22:43:00,
2013-01-22 14:48:00,66.9,6.3,-100.00,ENE,72,4.0,9.0,9,0.00,,,0.00,meteohub,2013-01-22 22:48:00,
2013-01-22 14:53:00,66.7,6.1,-100.00,ENE,71,3.0,8.0,9,0.00,,,0.00,meteohub,2013-01-22 22:53:00,
2013-01-22 14:58:00,66.6,5.9,-100.00,ENE,70,4.0,7.0,9,0.00,,,0.00,meteohub,2013-01-22 22:58:00,
2013-01-22 15:03:00,66.6,5.9,-100.00,ENE,69,5.0,8.0,9,0.00,,,0.00,meteohub,2013-01-22 23:03:00,
2013-01-22 15:08:00,66.4,5.9,-100.00,ENE,68,5.0,8.0,9,0.00,,,0.00,meteohub,2013-01-22 23:08:00,
2013-01-22 15:13:00,66.6,5.9,-100.00,ENE,67,4.0,8.0,9,0.00,,,0.00,meteohub,2013-01-22 23:13:00,
2013-01-22 15:18:00,66.6,5.9,-100.00,ENE,68,7.0,8.0,9,0.00,,,0.00,meteohub,2013-01-22 23:18:00,
2013-01-22 15:23:00,66.4,5.9,-100.00,ENE,68,2.0,8.0,9,0.00,,,0.00,meteohub,2013-01-22 23:23:00,
2013-01-22 15:28:00,66.4,5.9,-100.00,ENE,68,4.0,7.0,9,0.00,,,0.00,meteohub,2013-01-22 23:28:00,
2013-01-22 15:33:00,66.2,5.7,-100.00,ENE,68,4.0,7.0,9,0.00,,,0.00,meteohub,2013-01-22 23:33:00,
2013-01-22 15:38:00,66.2,5.7,-100.00,ENE,68,5.0,5.0,9,0.00,,,0.00,meteohub,2013-01-22 23:38:00,
2013-01-22 15:43:00,66.0,5.5,-100.00,ENE,68,3.0,5.0,9,0.00,,,0.00,meteohub,2013-01-22 23:43:00,
2013-01-22 15:48:00,66.0,5.5,-100.00,ENE,68,2.0,5.0,9,0.00,,,0.00,meteohub,2013-01-22 23:48:00,
2013-01-22 15:53:00,66.0,7.9,-100.00,ENE,68,1.0,5.0,10,0.00,,,0.00,meteohub,2013-01-22 23:53:00,
2013-01-22 15:58:00,66.0,5.5,-100.00,ENE,68,2.0,4.0,9,0.00,,,0.00,meteohub,2013-01-22 23:58:00,
2013-01-22 16:03:00,66.0,5.5,-100.00,ENE,68,2.0,4.0,9,0.00,,,0.00,meteohub,2013-01-23 00:03:00,
2013-01-22 16:08:00,65.8,5.4,-100.00,ENE,68,1.0,4.0,9,0.00,,,0.00,meteohub,2013-01-23 00:08:00,
2013-01-22 16:13:00,65.8,5.4,-100.00,ENE,68,1.0,4.0,9,0.00,,,0.00,meteohub,2013-01-23 00:13:00,
2013-01-22 16:18:00,65.7,5.2,-100.00,ENE,67,2.0,4.0,9,0.00,,,0.00,meteohub,2013-01-23 00:18:00,
2013-01-22 16:23:00,65.7,7.5,-100.00,ENE,67,1.0,4.0,10,0.00,,,0.00,meteohub,2013-01-23 00:23:00,
2013-01-22 16:28:00,65.7,5.2,-100.00,ENE,68,1.0,3.0,9,0.00,,,0.00,meteohub,2013-01-23 00:28:00,
2013-01-22 16:33:00,65.7,7.5,-100.00,ENE,67,0.0,3.0,10,0.00,,,0.00,meteohub,2013-01-23 00:33:00,
2013-01-22 16:38:00,65.5,7.5,-100.00,ENE,67,1.0,3.0,10,0.00,,,0.00,meteohub,2013-01-23 00:38:00,
2013-01-22 16:43:00,65.3,7.3,-100.00,ENE,67,3.0,3.0,10,0.00,,,0.00,meteohub,2013-01-23 00:43:00,
2013-01-22 16:48:00,65.1,7.2,-100.00,ENE,67,3.0,3.0,10,0.00,,,0.00,meteohub,2013-01-23 00:48:00,
2013-01-22 16:53:00,64.9,7.0,-100.00,ENE,67,3.0,4.0,10,0.00,,,0.00,meteohub,2013-01-23 00:53:00,
2013-01-22 16:58:00,64.6,6.8,-100.00,ENE,67,3.0,4.0,10,0.00,,,0.00,meteohub,2013-01-23 00:58:00,
2013-01-22 17:03:00,64.2,6.4,-100.00,ENE,67,5.0,5.0,10,0.00,,,0.00,meteohub,2013-01-23 01:03:00,
2013-01-22 17:08:00,63.9,6.3,-100.00,NE,49,4.0,5.0,10,0.00,,,0.00,meteohub,2013-01-23 01:08:00,
2013-01-22 17:13:00,63.5,5.9,-100.00,NE,49,2.0,7.0,10,0.00,,,0.00,meteohub,2013-01-23 01:13:00,
2013-01-22 17:18:00,63.1,5.7,-100.00,NE,49,3.0,7.0,10,0.00,,,0.00,meteohub,2013-01-23 01:18:00,
2013-01-22 17:23:00,63.0,5.5,-100.00,NE,49,2.0,6.0,10,0.00,,,0.00,meteohub,2013-01-23 01:23:00,
2013-01-22 17:29:00,62.4,7.2,-100.00,NE,49,1.0,5.0,11,0.00,,,0.00,meteohub,2013-01-23 01:29:00,
2013-01-22 17:34:00,62.2,5.0,-100.00,NE,49,0.0,4.0,10,0.00,,,0.00,meteohub,2013-01-23 01:34:00,
2013-01-22 17:39:00,62.1,7.0,-100.00,NE,49,1.0,3.0,11,0.00,,,0.00,meteohub,2013-01-23 01:39:00,
2013-01-22 17:44:00,61.5,8.4,-100.00,NE,50,1.0,2.0,12,0.00,,,0.00,meteohub,2013-01-23 01:44:00,
2013-01-22 17:49:00,61.2,8.1,-100.00,NE,51,1.0,4.0,12,0.00,,,0.00,meteohub,2013-01-23 01:49:00,
2013-01-22 17:54:00,60.6,7.7,-100.00,NE,51,4.0,5.0,12,0.00,,,0.00,meteohub,2013-01-23 01:54:00,
2013-01-22 17:59:00,60.3,7.3,-100.00,ENE,58,3.0,5.0,12,0.00,,,0.00,meteohub,2013-01-23 01:59:00,
2013-01-22 18:04:00,59.7,7.0,-100.00,ENE,73,5.0,5.0,12,0.00,,,0.00,meteohub,2013-01-23 02:04:00,
2013-01-22 18:09:00,59.2,6.6,-100.00,East,86,6.0,6.0,12,0.00,,,0.00,meteohub,2013-01-23 02:09:00,
2013-01-22 18:14:00,58.6,7.9,-100.00,SSE,161,5.0,7.0,13,0.00,,,0.00,meteohub,2013-01-23 02:14:00,
2013-01-22 18:19:00,58.3,7.7,-100.00,South,175,7.0,7.0,13,0.00,,,0.00,meteohub,2013-01-23 02:19:00,
2013-01-22 18:24:00,57.9,7.3,-100.00,South,188,4.0,8.0,13,0.00,,,0.00,meteohub,2013-01-23 02:24:00,
2013-01-22 18:29:00,57.7,7.2,-100.00,SSW,202,5.0,8.0,13,0.00,,,0.00,meteohub,2013-01-23 02:29:00,
2013-01-22 18:34:00,57.6,7.0,-100.00,SSW,207,6.0,8.0,13,0.00,,,0.00,meteohub,2013-01-23 02:34:00,
2013-01-22 18:39:00,57.4,7.0,-100.00,SW,215,6.0,8.0,13,0.00,,,0.00,meteohub,2013-01-23 02:39:00,
2013-01-22 18:44:00,56.8,8.1,-100.00,SW,223,5.0,7.0,14,0.00,,,0.00,meteohub,2013-01-23 02:44:00,
2013-01-22 18:49:00,55.8,5.5,-100.00,WSW,239,7.0,7.0,13,0.00,,,0.00,meteohub,2013-01-23 02:49:00,
2013-01-22 18:54:00,55.6,7.2,-100.00,WSW,239,3.0,7.0,14,0.00,,,0.00,meteohub,2013-01-23 02:54:00,
2013-01-22 18:59:00,55.4,7.0,-100.00,WSW,239,1.0,7.0,14,0.00,,,0.00,meteohub,2013-01-23 02:59:00,
2013-01-22 19:04:00,55.0,6.6,-100.00,WSW,239,1.0,7.0,14,0.00,,,0.00,meteohub,2013-01-23 03:04:00,
2013-01-22 19:09:00,54.9,6.6,-100.00,WSW,238,3.0,6.0,14,0.00,,,0.00,meteohub,2013-01-23 03:09:00,
2013-01-22 19:14:00,54.7,6.4,-100.00,WSW,238,0.0,4.0,14,0.00,,,0.00,meteohub,2013-01-23 03:14:00,
2013-01-22 19:19:00,54.3,6.1,-100.00,WSW,238,2.0,4.0,14,0.00,,,0.00,meteohub,2013-01-23 03:19:00,
2013-01-22 19:24:00,54.1,5.9,-100.00,WSW,238,3.0,4.0,14,0.00,,,0.00,meteohub,2013-01-23 03:24:00,
2013-01-22 19:29:00,54.0,7.3,-100.00,SW,234,2.0,4.0,15,0.00,,,0.00,meteohub,2013-01-23 03:29:00,
2013-01-22 19:34:00,54.0,5.9,-100.00,SW,234,2.0,6.0,14,0.00,,,0.00,meteohub,2013-01-23 03:34:00,
2013-01-22 19:40:00,53.8,5.7,-100.00,SW,230,4.0,6.0,14,0.00,,,0.00,meteohub,2013-01-23 03:40:00,
2013-01-22 19:45:00,53.6,7.0,-100.00,SW,230,5.0,6.0,15,0.00,,,0.00,meteohub,2013-01-23 03:45:00,
2013-01-22 19:50:00,53.4,7.0,-100.00,SW,223,5.0,6.0,15,0.00,,,0.00,meteohub,2013-01-23 03:50:00,
2013-01-22 19:55:00,53.4,7.0,-100.00,SW,222,3.0,7.0,15,0.00,,,0.00,meteohub,2013-01-23 03:55:00,
2013-01-22 20:00:00,53.2,8.2,-100.00,SW,222,0.0,7.0,16,0.00,,,0.00,meteohub,2013-01-23 04:00:00,
2013-01-22 20:05:00,53.1,6.6,-100.00,SW,222,1.0,7.0,15,0.00,,,0.00,meteohub,2013-01-23 04:05:00,
2013-01-22 20:10:00,52.9,6.4,-100.00,SW,222,3.0,6.0,15,0.00,,,0.00,meteohub,2013-01-23 04:10:00,
2013-01-22 20:15:00,52.7,6.3,-100.00,SW,222,3.0,3.0,15,0.00,,,0.00,meteohub,2013-01-23 04:15:00,
2013-01-22 20:20:00,52.5,6.3,-100.00,SSW,206,7.0,7.0,15,0.00,,,0.00,meteohub,2013-01-23 04:20:00,
2013-01-22 20:25:00,52.7,6.3,-100.00,SSW,192,6.0,6.0,15,0.00,,,0.00,meteohub,2013-01-23 04:25:00,
2013-01-22 20:30:00,52.9,7.9,-100.00,SSW,192,4.0,7.0,16,0.00,,,0.00,meteohub,2013-01-23 04:30:00,
2013-01-22 20:35:00,52.5,6.3,-100.00,SSW,192,1.0,7.0,15,0.00,,,0.00,meteohub,2013-01-23 04:35:00,
2013-01-22 20:40:00,52.3,6.1,-100.00,SSW,192,1.0,7.0,15,0.00,,,0.00,meteohub,2013-01-23 04:40:00,
2013-01-22 20:45:00,52.2,7.3,-100.00,SSW,192,0.0,5.0,16,0.00,,,0.00,meteohub,2013-01-23 04:45:00,
2013-01-22 20:50:00,51.6,6.8,-100.00,SSW,192,1.0,3.0,16,0.00,,,0.00,meteohub,2013-01-23 04:50:00,
2013-01-22 20:55:00,51.4,8.1,-100.00,SSW,192,0.0,2.0,17,0.00,,,0.00,meteohub,2013-01-23 04:55:00,
2013-01-22 21:02:00,51.3,7.9,-100.00,SSW,192,0.0,2.0,17,0.00,,,0.00,meteohub,2013-01-23 05:02:00,
2013-01-22 21:03:00,51.1,7.7,-100.00,SSW,192,1.0,2.0,17,0.00,,,0.00,meteohub,2013-01-23 05:03:00,
2013-01-22 21:04:00,51.1,7.7,-100.00,SSW,192,1.0,2.0,17,0.00,,,0.00,meteohub,2013-01-23 05:04:00,
2013-01-22 21:09:00,50.5,8.6,-100.00,SSW,192,2.0,3.0,18,0.00,,,0.00,meteohub,2013-01-23 05:09:00,
2013-01-22 21:14:00,50.4,8.4,-100.00,SSW,192,1.0,3.0,18,0.00,,,0.00,meteohub,2013-01-23 05:14:00,
2013-01-22 21:19:00,50.2,9.5,-100.00,SSW,192,0.0,3.0,19,0.00,,,0.00,meteohub,2013-01-23 05:19:00,
2013-01-22 21:24:00,49.8,9.1,-100.00,SSW,192,0.0,3.0,19,0.00,,,0.00,meteohub,2013-01-23 05:24:00,
2013-01-22 21:29:00,49.3,7.5,-100.00,SSW,192,0.0,2.0,18,0.00,,,0.00,meteohub,2013-01-23 05:29:00,
2013-01-22 21:34:00,48.9,7.2,-100.00,SSW,192,0.0,0.0,18,0.00,,,0.00,meteohub,2013-01-23 05:34:00,
2013-01-22 21:39:00,48.9,7.2,-100.00,SSW,192,0.0,0.0,18,0.00,,,0.00,meteohub,2013-01-23 05:39:00,
2013-01-22 21:44:00,48.6,7.0,-100.00,SSW,192,0.0,0.0,18,0.00,,,0.00,meteohub,2013-01-23 05:44:00,
2013-01-22 21:49:00,48.2,6.6,-100.00,SSW,192,0.0,0.0,18,0.00,,,0.00,meteohub,2013-01-23 05:49:00,
2013-01-22 21:54:00,48.0,6.4,-100.00,SSW,192,2.0,0.0,18,0.00,,,0.00,meteohub,2013-01-23 05:54:00,
2013-01-22 21:59:00,47.8,6.4,-100.00,SSW,193,5.0,5.0,18,0.00,,,0.00,meteohub,2013-01-23 05:59:00,
2013-01-22 22:04:00,47.5,6.1,-100.00,SSW,194,4.0,4.0,18,0.00,,,0.00,meteohub,2013-01-23 06:04:00,
2013-01-22 22:09:00,47.5,6.1,-100.00,SSW,212,6.0,6.0,18,0.00,,,0.00,meteohub,2013-01-23 06:09:00,
2013-01-22 22:14:00,46.9,5.5,-100.00,SW,232,5.0,7.0,18,0.00,,,0.00,meteohub,2013-01-23 06:14:00,
2013-01-22 22:19:00,46.9,5.5,-100.00,SW,233,4.0,7.0,18,0.00,,,0.00,meteohub,2013-01-23 06:19:00,
2013-01-22 22:24:00,46.8,5.5,-100.00,SW,233,0.0,7.0,18,0.00,,,0.00,meteohub,2013-01-23 06:24:00,
2013-01-22 22:29:00,46.6,5.4,-100.00,SW,233,1.0,7.0,18,0.00,,,0.00,meteohub,2013-01-23 06:29:00,
2013-01-22 22:34:00,46.4,6.4,-100.00,SW,227,1.0,6.0,19,0.00,,,0.00,meteohub,2013-01-23 06:34:00,
2013-01-22 22:39:00,46.2,7.3,-100.00,SW,227,1.0,6.0,20,0.00,,,0.00,meteohub,2013-01-23 06:39:00,
2013-01-22 22:45:00,45.9,7.0,-100.00,SW,227,1.0,4.0,20,0.00,,,0.00,meteohub,2013-01-23 06:45:00,
2013-01-22 22:50:00,45.5,7.9,-100.00,SW,235,2.0,4.0,21,0.00,,,0.00,meteohub,2013-01-23 06:50:00,
2013-01-22 22:55:00,45.0,6.3,-100.00,WSW,246,0.0,4.0,20,0.00,,,0.00,meteohub,2013-01-23 06:55:00,
2013-01-22 23:00:00,44.8,6.1,-100.00,WSW,246,0.0,6.0,20,0.00,,,0.00,meteohub,2013-01-23 07:00:00,
2013-01-22 23:05:00,44.4,5.9,-100.00,WSW,246,0.0,6.0,20,0.00,,,0.00,meteohub,2013-01-23 07:05:00,
2013-01-22 23:10:00,44.4,5.9,-100.00,WSW,246,0.0,5.0,20,0.00,,,0.00,meteohub,2013-01-23 07:10:00,
2013-01-22 23:15:00,44.4,5.9,-100.00,WSW,246,0.0,1.0,20,0.00,,,0.00,meteohub,2013-01-23 07:15:00,
2013-01-22 23:20:00,44.2,5.7,-100.00,WSW,246,1.0,1.0,20,0.00,,,0.00,meteohub,2013-01-23 07:20:00,
2013-01-22 23:25:00,44.2,5.7,-100.00,WSW,246,0.0,1.0,20,0.00,,,0.00,meteohub,2013-01-23 07:25:00,
2013-01-22 23:30:00,44.2,6.8,-100.00,WSW,246,1.0,2.0,21,0.00,,,0.00,meteohub,2013-01-23 07:30:00,
2013-01-22 23:35:00,44.1,6.6,-100.00,WSW,246,1.0,2.0,21,0.00,,,0.00,meteohub,2013-01-23 07:35:00,
2013-01-22 23:40:00,44.1,5.5,-100.00,WSW,246,0.0,1.0,20,0.00,,,0.00,meteohub,2013-01-23 07:40:00,
2013-01-22 23:45:00,44.1,5.5,-100.00,WSW,246,0.0,1.0,20,0.00,,,0.00,meteohub,2013-01-23 07:45:00,
2013-01-22 23:50:00,44.1,6.6,-100.00,WSW,246,0.0,1.0,21,0.00,,,0.00,meteohub,2013-01-23 07:50:00,
2013-01-22 23:55:00,44.1,6.6,-100.00,WSW,246,1.0,1.0,21,0.00,,,0.00,meteohub,2013-01-23 07:55:00,